Location: Lac de la Montange Noire
(46.1952°N, 74.2701°W)
Time: 06:18:48
(UTC-04:00)

Iridium 42 - Visible Passes

Search period start: 24 August 2016 00:00
Search period end: 03 September 2016 00:00
Orbit: 775 x 778 km, 86.4° (Epoch: 23 August)

Date Brightness Start Highest point End Pass type
(mag) Time Alt. Az. Time Alt. Az. Time Alt. Az.
24 Aug 6.8 00:47:42 10° NNW 00:51:09 34° NW 00:51:09 34° NW visible
24 Aug 7.5 22:34:33 10° NE 22:36:56 15° ENE 22:36:56 15° ENE visible
25 Aug 6.4 00:13:42 10° N 00:17:23 46° NNW 00:17:23 46° NNW visible
25 Aug 6.4 23:39:54 10° N 23:43:36 44° NNE 23:43:36 44° NNE visible
26 Aug 7.7 01:21:49 10° NW 01:24:03 17° WNW 01:24:03 17° WNW visible
26 Aug 6.8 23:06:22 10° NNE 23:09:50 31° NE 23:09:50 31° NE visible
27 Aug 7.2 00:47:13 10° NNW 00:50:17 26° NW 00:50:17 26° NW visible
27 Aug 7.3 22:33:10 10° NNE 22:36:04 20° ENE 22:36:04 20° ENE visible
28 Aug 6.7 00:13:02 10° NNW 00:16:31 39° NW 00:16:31 39° NW visible
28 Aug 7.7 22:00:53 10° NE 22:02:18 12° ENE 22:02:18 12° ENE visible
28 Aug 6.4 23:39:08 10° N 23:42:45 46° N 23:42:45 46° N visible
29 Aug 8.0 01:21:59 10° NW 01:23:12 12° WNW 01:23:12 12° WNW visible
29 Aug 6.5 23:05:26 10° N 23:09:00 37° NE 23:09:00 37° NE visible
30 Aug 7.6 00:46:51 10° NNW 00:49:27 20° WNW 00:49:27 20° WNW visible
30 Aug 7.0 22:32:01 10° NNE 22:35:15 25° NE 22:35:15 25° NE visible
31 Aug 7.1 00:12:28 10° NNW 00:15:42 31° NW 00:15:42 31° NW visible
31 Aug 7.4 21:59:04 10° NNE 22:01:30 16° ENE 22:01:30 16° ENE visible
31 Aug 6.6 23:38:25 10° N 23:41:56 43° NNW 23:41:56 43° NNW visible
01 Sep 6.4 23:04:36 10° N 23:08:13 43° NNE 23:08:13 43° NNE visible
02 Sep 7.9 00:46:42 10° NW 00:48:39 15° WNW 00:48:39 15° WNW visible
02 Sep 6.7 22:31:01 10° NNE 22:34:29 32° NE 22:34:29 32° NE visible
